Location: Göttingen
(51.5413°N, 9.9158°E)
Time: 11:31:09
(UTC+02:00)

ZACube-1 - Visible Passes

Search period start: 27 June 2022 00:00
Search period end: 07 July 2022 00:00
Orbit: 581 x 662 km, 97.6° (Epoch: 27 June)

Date Brightness Start Highest point End Pass type
(mag) Time Alt. Az. Time Alt. Az. Time Alt. Az.
30 Jun ? 03:55:35 10° ENE 03:57:35 13° E 03:59:36 10° ESE visible
01 Jul ? 04:12:30 10° NE 04:15:37 18° E 04:18:46 10° SE visible
05 Jul ? 03:48:58 10° ENE 03:50:23 11° E 03:51:47 10° ESE visible
06 Jul ? 04:05:33 10° NE 04:08:25 16° E 04:11:18 10° SE visible
